Weather Roundup
Issued by NWS Springfield, MO

Home | Current Version | Previous Version | Text Only | Print | Product List | Glossary On
Versions: 1 2 3 4 5 6 7 8 9 10 11 12 13 14 15 16 17 18 19 20 21 22 23 24 25 26 27 28 29 30 31 32 33 34 35 36 37 38 39 40 41 42 43 44 45 46 47 48 49 50
000
NZUS99 KSGF 301557
HRRSGF

HOURLY WEATHER
NATIONAL WEATHER SERVICE SPRINGFIELD MO
1100 AM CDT SAT JUL 30 2016

......SGF CWA......

CITY           SKY/WX    TMP DP  RH WIND       PRES   REMARKS
SPRINGFIELD    SUNNY     82  66  58 SE3       30.03S
JOPLIN         SUNNY     84  70  62 CALM      30.03R
WEST PLAINS    PTSUNNY   83  69  62 CALM      30.06R
ROLLA          SUNNY     79  67  66 W5        30.02S
BRANSON        PTSUNNY   81  73  78 CALM      30.06R

......SURROUNDING SGF CWA......

CITY           SKY/WX    TMP DP  RH WIND       PRES   REMARKS
CHANUTE        MOSUNNY   83  72  69 CALM      30.02S
PARSONS        MOSUNNY   84  71  65 CALM      30.02F
COFFEYVILLE    CLOUDY    85  70  60 VRB3      30.01S
EMPORIA        MOSUNNY   79  68  69 SE8       30.03S
HARRISON AR    MOSUNNY   82  72  71 CALM      30.05S

......KANSAS AND MISSOURI......

CITY           SKY/WX    TMP DP  RH WIND       PRES   REMARKS
KANSAS CTY INT CLOUDY    75  63  66 VRB5      30.05R
SEDALIA        MOSUNNY   79  67  66 VRB3      30.05R
ST JOSEPH      MOSUNNY   78  63  59 VRB3      30.04R
ST LOUIS       MOSUNNY   84  65  52 W7        30.00S
WICHITA        CLOUDY    74  69  85 S9        30.02S
TOPEKA         MOSUNNY   78  67  68 NE7       30.03F
OLATHE         MOSUNNY   79  63  57 NE3       30.05R

......TENNESSEE......

CITY           SKY/WX    TMP DP  RH WIND       PRES   REMARKS
MEMPHIS        NOT AVBL
NASHVILLE      PTSUNNY   82  69  64 CALM      30.03S

......ARKANSAS.......

CITY           SKY/WX    TMP DP  RH WIND       PRES   REMARKS
FAYETTEVILLE   CLOUDY    80  73  79 W5        30.04S
FT SMITH       MOSUNNY   85  69  58 VRB3      30.00S
LITTLE ROCK    PTSUNNY   85  72  65 W7        30.02S HX  91

......OKLAHOMA.......

CITY           SKY/WX    TMP DP  RH WIND       PRES   REMARKS
TULSA          TSTM      75  73  93 SW12      30.02R VSB 1
PONCA CITY     HVY RAIN  72  69  90 S7        30.01F FOG
MCALESTER      PTSUNNY   87  73  62 SW12      30.01R HX  94
OKLAHOMA CITY  CLOUDY    80  72  76 E7        29.99F

......IOWA............

CITY           SKY/WX    TMP DP  RH WIND       PRES   REMARKS
DES MOINES     NOT AVBL
QUAD CITIES    CLOUDY    77  67  71 E6        29.99R

......ILLINOIS........

CITY           SKY/WX    TMP DP  RH WIND       PRES   REMARKS
QUINCY         CLOUDY    72  67  84 W6        30.01R
CHICAGO        CLOUDY    72  66  81 NE12      29.98S



USA.gov is the U.S. government's official web portal to all federal, state and local government web resources and services.